This is the latest recevied weather packets stored in our database for station/object HS2LXA-13. If no packets are shown the sender has not sent any weather packets the latest 10 day(s).
| Time | Temp. | Humidity | Pressure | Rain* | Wind** | Luminosity | Snow |
|---|---|---|---|---|---|---|---|
| 1778028555 | 36.11° C | 92% | 1010.8 hPa | 0 mm | - | 0 W/m² | - |
| 1778027953 | 36.67° C | 93% | 1010.5 hPa | 0 mm | - | 0 W/m² | - |
| 1778027350 | 33.89° C | 94% | 1010.3 hPa | 0 mm | - | 0 W/m² | - |
| 1778026747 | 31.67° C | 93% | 1010.2 hPa | 0 mm | - | 0 W/m² | - |
| 1778026146 | 30° C | 94% | 1010.2 hPa | 0 mm | - | 0 W/m² | - |
| 1778025088 | 28.33° C | 94% | 1010.2 hPa | 0 mm | - | 0 W/m² | - |
| 1778024483 | 28.33° C | 93% | 1010.1 hPa | 0 mm | - | 0 W/m² | - |
| 1778023883 | 27.78° C | 92% | 1009.9 hPa | 0 mm | - | 0 W/m² | - |
| 1778023281 | 27.22° C | 92% | 1009.8 hPa | 0 mm | - | 0 W/m² | - |
| 1778022680 | 27.22° C | 92% | 1009.6 hPa | 0 mm | - | 0 W/m² | - |
| 1778022079 | 27.22° C | 92% | 1009.5 hPa | 0 mm | - | 0 W/m² | - |
| 1778021477 | 26.67° C | 93% | 1009.3 hPa | 0 mm | - | 0 W/m² | - |
| 1778020876 | 27.22° C | 92% | 1009.2 hPa | 0 mm | - | 0 W/m² | - |
| 1778020275 | 27.78° C | 92% | 1009.2 hPa | 0 mm | - | 0 W/m² | - |
| 1778019675 | 27.78° C | 92% | 1009.2 hPa | 0 mm | - | 0 W/m² | - |
| 1778019076 | 27.22° C | 92% | 1009.1 hPa | 0 mm | - | 0 W/m² | - |
| 1778018471 | 27.22° C | 93% | 1009.1 hPa | 0 mm | - | 0 W/m² | - |
| 1778017870 | 27.22° C | 93% | 1009 hPa | 0 mm | - | 0 W/m² | - |
| 1778017270 | 26.67° C | 93% | 1008.8 hPa | 0 mm | - | 0 W/m² | - |
| 1778016670 | 26.67° C | 93% | 1008.7 hPa | 0 mm | - | 0 W/m² | - |
| 1778016068 | 27.22° C | 93% | 1008.6 hPa | 0 mm | - | 0 W/m² | - |
| 1778015466 | 27.22° C | 92% | 1008.7 hPa | 0 mm | - | 0 W/m² | - |
| 1778014864 | 27.22° C | 92% | 1008.6 hPa | 0 mm | - | 0 W/m² | - |
| 1778014264 | 27.22° C | 92% | 1008.6 hPa | 0 mm | - | 0 W/m² | - |
| 1778013662 | 27.78° C | 92% | 1008.6 hPa | 0 mm | - | 0 W/m² | - |
* Rain latest hour (hover to see other rain measurements)
** Current wind speed in m/s (hover to see current wind gust speed)